Location: �mondeville
(49.4591°N, 1.3431°W)
Time: 06:55:54
(UTC+00:00)

NOSS 3-4 (A) - Pass Details

Date: 22 October 2019
Orbit: 907 x 1306 km, 63.4° (Epoch: 10 November)

Event Time Altitude Azimuth Distance (km) Brightness Sun altitude
Exits shadow 05:30:24 14° 262° (W) 2,348 4.9 -11.5°
Maximum altitude 05:35:18 41° 329° (NNW) 1,369 4.0 -10.7°
Drops below altitude 10° 05:41:31 10° 39° (NE) 2,839 6.4 -9.7°
Sets 05:44:27 0° 46° (NE) 3,857 7.3 -9.2°
